#timestamp,LO_Frequency,Hit 
1501419615.7,286046975.0,N
1501419635.6,286046974.3,N
1501419655.4,286046975.3,N
1501419675.2,286046975.6,N
1501419695.0,286046974.2,N
1501419696.0,286046974.2,N
1501419715.8,286046974.2,N
1501419735.6,286046975.4,N
1501419755.4,286046974.9,N
1501419775.3,286046974.3,N
1501419795.1,286046974.7,N
1501419815.8,286046973.2,N
1501419835.7,286046975.1,N
1501419855.5,286046975.5,N
1501419875.3,286046973.0,N
1501419895.2,286046973.0,N
1501419915.9,286046975.6,N
1501419935.7,286046973.7,N
1501419955.5,286046973.3,N
1501419975.4,286046973.1,N
1501419995.2,286046972.5,N
1501420015.0,286046973.5,N
1501420015.9,286046973.5,N
1501420035.8,286046973.6,N
1501420055.6,286046975.2,N
1501420075.4,286046973.1,N
1501420095.3,286046974.3,N
1501420115.1,286046975.0,N
1501420135.8,286046973.0,N
1501420155.7,286046974.6,N
1501420175.5,286046975.6,N
1501420195.3,286046974.8,N
1501420215.2,286046972.9,N
1501420235.9,286046973.1,N
1501420255.7,286046972.8,N
1501420275.5,286046973.0,N
1501420295.4,286046972.9,N
1501420315.2,286046975.3,N
1501420335.0,286046975.2,N
1501420335.9,286046975.2,N
1501420355.8,286046972.7,Y
1501420375.6,286046987.7,N
1501420395.4,286046987.1,N
1501420415.3,286046987.4,N
1501420435.1,286046987.0,N
1501420455.8,286046987.6,N
1501420475.7,286046988.2,N
1501420495.5,286046985.3,N
1501420515.3,286046988.3,N
1501420535.2,286046987.4,N
1501420555.9,286046985.7,N
1501420575.7,286046985.6,N
1501420595.5,286046988.1,N
1501420615.4,286046988.3,N
1501420635.2,286046985.6,N
1501420655.0,286046987.6,N
1501420655.9,286046987.6,N
1501420675.8,286046987.2,N
1501420695.6,286046987.0,N
1501420715.4,286046990.0,N
1501420735.3,286046987.8,N
1501420755.1,286046987.3,N
1501420756.0,286046987.3,N
1501420775.8,286046988.3,N
1501420795.7,286046985.6,N
1501420815.5,286046986.4,N
1501420835.3,286046987.7,N
1501420855.2,286046988.4,N
1501420875.9,286046985.4,N
1501420895.7,286046988.3,N
1501420915.5,286046987.4,N
1501420935.4,286046987.7,N
1501420955.2,286046988.1,N
1501420975.0,286046986.7,N
1501420975.9,286046986.7,N
1501420995.8,286046988.0,N
1501421015.6,286046985.3,N
1501421035.4,286046985.6,N
1501421055.3,286046986.5,N
1501421075.1,286046984.1,N
1501421076.0,286046984.1,N
1501421095.8,286046986.4,N
1501421115.7,286046984.3,N
1501421135.5,286046984.7,N
1501421155.3,286046985.6,N
1501421175.1,286046983.7,N
1501421195.9,286046985.5,N
1501421215.7,286046985.5,N
1501421235.5,286046986.8,N
1501421255.4,286046986.8,N
1501421275.2,286046983.9,N
1501421295.0,286046985.9,N
1501421295.9,286046985.9,N
1501421315.8,286046985.4,N
1501421335.6,286046986.8,N
1501421355.4,286046985.3,N
1501421375.3,286046985.9,N
1501421395.1,286046986.2,N
1501421396.0,286046986.2,N
1501421415.8,286046985.9,N
1501421435.7,286046986.6,N
1501421455.5,286046984.5,N
1501421475.3,286046986.1,N
1501421495.1,286046984.2,N
1501421515.9,286046986.8,N
1501421535.7,286046984.1,N
1501421555.5,286046985.0,N
1501421575.4,286046984.3,N
1501421595.2,286046984.1,N
1501421615.0,286046984.6,N
1501421615.9,286046984.6,N
1501421635.8,286046984.2,N
1501421655.6,286046984.9,N
1501421675.4,286046984.7,N
1501421695.3,286046984.1,N
1501421715.1,286046984.1,N
1501421716.0,286046984.1,N
1501421735.8,286046984.9,N
1501421755.6,286046986.6,N
1501421775.5,286046985.0,N
1501421795.3,286046986.4,N
1501421815.1,286046986.4,N
1501421835.9,286046984.7,N
1501421855.7,286046986.3,N
1501421875.5,286046984.0,N
1501421895.4,286046986.3,N
1501421915.2,286046985.8,N
1501421935.0,286046984.5,N
1501421935.9,286046984.5,N
1501421955.8,286046984.3,N
1501421975.6,286046986.6,N
1501421995.4,286046984.9,N
1501422015.3,286046986.7,N
1501422035.1,286046984.9,N
1501422036.0,286046984.9,N
1501422055.8,286046983.7,N
1501422075.6,286046984.0,N
1501422095.5,286046986.8,N
1501422115.3,286046986.0,N
1501422135.1,286046983.9,N
1501422155.9,286046984.9,N
1501422175.7,286046986.6,N
1501422195.5,286046984.8,N
1501422215.4,286046984.0,N
1501422235.2,286046986.5,N
1501422255.0,286046985.9,N
1501422255.9,286046985.9,N
1501422275.8,286046986.1,N
1501422295.6,286046986.8,N
1501422315.4,286046984.3,N
1501422335.2,286046986.7,N
1501422355.1,286046986.4,N
1501422356.0,286046986.4,N
1501422375.8,286046984.3,N
1501422395.6,286046984.1,N
1501422415.5,286046984.6,N
1501422435.3,286046983.8,N
1501422455.1,286046986.8,N
1501422475.9,286046984.4,N
1501422495.7,286046984.7,N
1501422515.5,286046984.2,N
1501422535.4,286046982.1,N
1501422555.2,286046984.6,N
1501422575.0,286046985.2,N
1501422575.9,286046985.2,N
1501422595.8,286046982.2,N
1501422615.6,286046982.2,N
1501422635.4,286046985.0,N
1501422655.2,286046985.2,N
1501422675.1,286046982.8,N
1501422676.0,286046982.8,N
1501422695.8,286046985.2,N
1501422715.6,286046985.2,N
1501422735.5,286046982.3,N
1501422755.3,286046983.6,N
1501422775.1,286046983.1,N
1501422795.9,286046983.0,N
1501422815.7,286046982.3,N
1501422835.5,286046985.0,N
1501422855.4,286046982.1,N
1501422875.2,286046983.3,N
1501422895.0,286046982.7,N
1501422895.9,286046982.7,N
1501422915.8,286046983.1,N
1501422935.6,286046981.0,Y
1501422955.4,286046999.0,N
1501422975.3,286046998.6,N
1501422995.1,286047000.8,N
1501422996.0,286047000.8,N
1501423015.8,286046999.1,N
1501423035.6,286046998.2,N
1501423055.5,286046998.7,N
1501423075.3,286046999.0,N
1501423095.1,286046998.7,N
1501423115.9,286046999.3,N
1501423135.7,286046999.1,N
1501423155.5,286046998.4,N
1501423175.4,286046996.6,N
1501423195.2,286046996.7,N
